TimeCET,TemperatureF,Dew PointF,Humidity,Sea Level PressureIn,VisibilityMPH,Wind Direction,Wind SpeedMPH,Gust SpeedMPH,PrecipitationIn,Events,Conditions,WindDirDegrees,DateUTC
12:00 AM,33.8,32.0,93,30.33,6.2,NNE,5.8,-,N/A,,Overcast,30,2013-02-26 23:00:00
1:00 AM,33.8,32.0,93,30.33,6.2,NNE,10.4,-,N/A,,Overcast,30,2013-02-27 00:00:00
1:31 AM,33.8,32.0,93,30.36,6.2,NNE,8.1,-,N/A,,Overcast,30,2013-02-27 00:31:00
2:00 AM,33.8,32.0,93,30.36,6.2,NNE,6.9,-,N/A,,Overcast,20,2013-02-27 01:00:00
3:00 AM,33.8,32.0,93,30.33,6.2,North,3.5,-,N/A,,Overcast,360,2013-02-27 02:00:00
4:00 AM,33.8,32.0,93,30.33,6.2,NW,3.5,-,N/A,,Overcast,320,2013-02-27 03:00:00
5:00 AM,33.8,32.0,93,30.33,6.2,WNW,3.5,-,N/A,,Overcast,300,2013-02-27 04:00:00
6:00 AM,33.8,33.8,100,30.33,6.2,NW,5.8,-,N/A,,Overcast,310,2013-02-27 05:00:00
6:21 AM,33.8,32.0,93,30.33,3.1,NW,8.1,-,N/A,,Overcast,310,2013-02-27 05:21:00
6:36 AM,33.8,32.0,93,30.33,1.9,WNW,8.1,-,N/A,,Overcast,300,2013-02-27 05:36:00
7:00 AM,33.8,33.8,100,30.33,2.2,NW,6.9,-,N/A,,Overcast,310,2013-02-27 06:00:00
7:10 AM,33.8,33.8,100,30.33,1.9,NW,5.8,-,N/A,,Overcast,310,2013-02-27 06:10:00
8:00 AM,33.8,32.0,93,30.36,2.2,NW,6.9,-,N/A,,Overcast,320,2013-02-27 07:00:00
8:27 AM,33.8,33.8,100,30.36,3.1,NW,6.9,-,N/A,,Overcast,310,2013-02-27 07:27:00
9:00 AM,33.8,33.8,100,30.36,6.2,NW,8.1,-,N/A,,Overcast,310,2013-02-27 08:00:00
11:00 AM,35.6,33.8,93,30.39,6.2,WNW,9.2,-,N/A,,Mostly Cloudy,300,2013-02-27 10:00:00
12:00 PM,35.6,33.8,93,30.36,6.2,WNW,9.2,-,N/A,,Overcast,290,2013-02-27 11:00:00
1:00 PM,37.4,35.6,93,30.36,6.2,WNW,8.1,-,N/A,,Overcast,290,2013-02-27 12:00:00
2:00 PM,37.4,35.6,93,30.36,6.2,WNW,9.2,-,N/A,,Overcast,290,2013-02-27 13:00:00
3:00 PM,37.4,35.6,93,30.36,6.2,WNW,8.1,-,N/A,,Overcast,300,2013-02-27 14:00:00
4:00 PM,37.4,35.6,93,30.33,6.2,WNW,8.1,-,N/A,,Overcast,290,2013-02-27 15:00:00
5:00 PM,37.4,35.6,93,30.36,6.2,WNW,8.1,-,N/A,,Overcast,300,2013-02-27 16:00:00
7:00 PM,37.4,35.6,93,30.36,6.2,NNE,3.5,-,N/A,,Overcast,20,2013-02-27 18:00:00
8:00 PM,37.4,33.8,87,30.36,6.2,ENE,2.3,-,N/A,,Overcast,60,2013-02-27 19:00:00
9:00 PM,35.6,33.8,93,30.36,6.2,Variable,1.2,-,N/A,,Overcast,0,2013-02-27 20:00:00
10:00 PM,35.6,33.8,93,30.36,6.2,ENE,2.3,-,N/A,,Overcast,70,2013-02-27 21:00:00
11:00 PM,33.8,33.8,100,30.39,6.2,WNW,2.3,-,N/A,,Overcast,300,2013-02-27 22:00:00